Location: Devargunta
(16.7631°N, 80.9077°E)
Time: 11:07:16
(UTC+00:00)

IRIDIUM 103 - Pass Details

Date: 19 January 2021
Orbit: 776 x 779 km, 86.4° (Epoch: 28 February)

Event Time Altitude Azimuth Distance (km) Brightness Sun altitude
Rises 23:31:56 0° 182° (S) 3,247 7.7 -22.9°
Reaches altitude 10° 23:34:16 10° 182° (S) 2,321 6.9 -22.4°
Maximum altitude 23:39:28 82° 270° (W) 788 4.2 -21.2°
Drops below altitude 10° 23:44:41 10° 358° (N) 2,326 6.6 -20.0°
Sets 23:47:02 0° 359° (N) 3,254 7.4 -19.5°
